TimeCST,TemperatureF,Dew PointF,Humidity,Sea Level PressureIn,VisibilityMPH,Wind Direction,Wind SpeedMPH,Gust SpeedMPH,PrecipitationIn,Events,Conditions,WindDirDegrees,DateUTC
12:53 AM,57.0,55.9,96,30.17,9.0,East,8.1,-,0.02,Rain,Light Rain,90,2013-01-10 06:53:00
1:53 AM,59.0,57.0,93,30.14,9.0,ESE,11.5,19.6,0.07,Rain,Light Rain,110,2013-01-10 07:53:00
2:53 AM,62.1,60.1,93,30.04,9.0,ESE,20.7,33.4,0.07,Rain,Light Rain,120,2013-01-10 08:53:00
3:02 AM,62.6,60.8,94,30.04,9.0,SE,21.9,31.1,0.01,Rain,Light Rain,130,2013-01-10 09:02:00
3:53 AM,63.0,61.0,93,30.09,10.0,SE,10.4,23.0,0.03,Rain,Light Rain,140,2013-01-10 09:53:00
4:01 AM,62.6,60.8,94,30.08,10.0,SSE,12.7,21.9,0.00,Rain,Light Rain,150,2013-01-10 10:01:00
4:19 AM,62.6,60.8,94,30.07,10.0,SE,12.7,19.6,0.01,Rain,Light Rain,130,2013-01-10 10:19:00
4:40 AM,62.6,60.8,94,30.07,10.0,SE,9.2,20.7,0.01,Rain,Light Rain,140,2013-01-10 10:40:00
4:53 AM,63.0,61.0,93,30.07,10.0,SSE,11.5,-,0.02,Rain,Light Rain,160,2013-01-10 10:53:00
5:16 AM,62.6,60.8,94,30.07,10.0,SE,11.5,20.7,0.01,Rain,Light Rain,130,2013-01-10 11:16:00
5:53 AM,63.0,61.0,93,30.09,10.0,South,9.2,16.1,0.02,Rain,Light Rain,170,2013-01-10 11:53:00
6:53 AM,64.0,62.1,93,30.09,10.0,SE,11.5,-,0.03,Rain,Light Rain,130,2013-01-10 12:53:00
7:04 AM,64.4,62.6,94,30.09,10.0,SE,9.2,-,0.00,Rain,Light Rain,140,2013-01-10 13:04:00
7:20 AM,64.4,62.6,94,30.10,10.0,SSE,8.1,-,0.01,Rain,Light Rain,150,2013-01-10 13:20:00
7:53 AM,64.0,62.1,93,30.11,10.0,SE,11.5,-,0.03,Rain,Light Rain,140,2013-01-10 13:53:00
8:30 AM,62.6,62.6,100,30.15,9.0,South,5.8,-,0.07,Rain,Rain,170,2013-01-10 14:30:00
8:53 AM,63.0,62.1,97,30.14,7.0,SSE,4.6,-,0.12,Rain,Rain,150,2013-01-10 14:53:00
9:53 AM,63.0,62.1,97,30.03,8.0,East,18.4,31.1,0.16,Rain,Light Rain,100,2013-01-10 15:53:00
10:29 AM,62.6,60.8,94,29.97,10.0,East,17.3,26.5,0.01,Rain,Light Rain,90,2013-01-10 16:29:00
10:53 AM,64.0,61.0,90,29.98,10.0,East,8.1,18.4,0.01,,Mostly Cloudy,100,2013-01-10 16:53:00
11:09 AM,64.4,60.8,88,29.99,10.0,East,9.2,21.9,N/A,,Scattered Clouds,100,2013-01-10 17:09:00
11:53 AM,64.0,61.0,90,29.99,10.0,SE,8.1,-,N/A,,Clear,140,2013-01-10 17:53:00
12:53 PM,64.0,60.1,87,29.97,10.0,SE,5.8,16.1,N/A,,Partly Cloudy,130,2013-01-10 18:53:00
1:53 PM,64.9,60.1,84,29.93,10.0,SSE,9.2,-,N/A,,Partly Cloudy,150,2013-01-10 19:53:00
2:53 PM,64.9,60.1,84,29.90,10.0,SSE,6.9,-,N/A,,Clear,150,2013-01-10 20:53:00
3:28 PM,64.4,60.8,88,29.91,10.0,South,8.1,16.1,N/A,,Mostly Cloudy,180,2013-01-10 21:28:00
3:53 PM,64.9,61.0,87,29.90,10.0,South,10.4,-,N/A,,Overcast,170,2013-01-10 21:53:00
4:44 PM,64.4,60.8,88,29.90,10.0,South,9.2,17.3,0.00,,Overcast,190,2013-01-10 22:44:00
4:53 PM,64.0,61.0,90,29.91,3.0,SSW,9.2,-,0.00,Rain,Light Rain,200,2013-01-10 22:53:00
5:01 PM,64.4,60.8,88,29.91,2.5,South,8.1,-,0.00,Rain,Light Rain,190,2013-01-10 23:01:00
5:09 PM,64.4,62.6,94,29.91,1.8,South,9.2,-,0.01,Rain,Light Rain,190,2013-01-10 23:09:00
5:18 PM,62.6,62.6,100,29.91,2.5,South,9.2,-,0.01,Rain,Light Rain,190,2013-01-10 23:18:00
5:31 PM,62.6,62.6,100,29.92,2.5,SSW,9.2,-,0.02,Rain,Light Rain,200,2013-01-10 23:31:00
5:38 PM,64.4,60.8,88,29.92,7.0,SSW,11.5,20.7,0.02,Rain,Light Rain,210,2013-01-10 23:38:00
5:53 PM,64.0,61.0,90,29.93,6.0,SSW,11.5,24.2,0.02,Rain,Light Rain,210,2013-01-10 23:53:00
6:14 PM,64.4,60.8,88,29.94,10.0,SSW,11.5,-,0.00,,Overcast,200,2013-01-11 00:14:00
6:35 PM,64.4,60.8,88,29.94,10.0,SSW,8.1,-,0.00,,Overcast,200,2013-01-11 00:35:00
6:53 PM,64.0,61.0,90,29.94,10.0,SSW,10.4,-,0.00,,Overcast,210,2013-01-11 00:53:00
7:17 PM,62.6,60.8,94,29.95,10.0,SSW,8.1,-,N/A,,Overcast,200,2013-01-11 01:17:00
7:35 PM,62.6,60.8,94,29.96,5.0,SW,8.1,-,0.01,Rain,Light Rain,220,2013-01-11 01:35:00
7:53 PM,63.0,61.0,93,29.96,4.0,SW,9.2,-,0.01,Rain,Light Rain,220,2013-01-11 01:53:00
8:00 PM,62.6,60.8,94,29.97,3.0,SW,10.4,-,0.01,Rain,Light Rain,230,2013-01-11 02:00:00
8:06 PM,62.6,60.8,94,29.97,4.0,SW,12.7,20.7,0.01,Rain,Light Rain,230,2013-01-11 02:06:00
8:23 PM,62.6,60.8,94,29.98,5.0,SW,9.2,16.1,0.01,Rain,Light Rain,230,2013-01-11 02:23:00
8:42 PM,62.6,57.2,82,29.97,10.0,SW,9.2,-,0.01,,Overcast,220,2013-01-11 02:42:00
8:51 PM,62.6,57.2,82,29.98,10.0,SW,9.2,-,0.01,,Overcast,220,2013-01-11 02:51:00
8:53 PM,62.1,57.9,86,29.97,10.0,SW,10.4,-,0.01,,Overcast,220,2013-01-11 02:53:00
9:53 PM,61.0,57.9,90,29.98,10.0,SSW,8.1,-,0.00,,Partly Cloudy,200,2013-01-11 03:53:00
10:53 PM,60.1,57.0,90,29.97,10.0,SW,8.1,-,N/A,,Clear,220,2013-01-11 04:53:00
11:53 PM,60.1,55.9,86,29.98,10.0,SW,8.1,-,N/A,,Clear,220,2013-01-11 05:53:00